Погода в Миротинском

Россия / Тульская область     54°37′51″N   37°42′14″E
темп.,
°C
ветер,
м/с
пор.,
м/с
влажн.,
%
обл.,
%
осадки,
мм/ч
давл.,
гПа
погр.,
м
15 апреля, чт
чт1500:00+11юв335495 0.0 101623
03:00+11ююв2256100 0.0 101611
06:00+10всв3462100 0.0 101555
09:00+14вюв4755100 0.0 1015296
12:00+17в4646100 0.0 1015554
15:00+19в5842100 0.0 10141469
18:00+17в51050100 0.0 1013270
21:00+13юв5966100 0.3 1015244
16 апреля, пт
пт1600:00+10всв2287100 0.5 101631
03:00+10св3487100 0.6 101668
06:00+9всв41087100 0.0 1017322
09:00+11в6977100 0.1 1019546
12:00+12всв6976100 0.2 1019606
15:00+16в786399 0.3 10191144
18:00+14всв71168100 0.9 1018855
21:00+11вюв51085100 3.9 1020536
17 апреля, сб
сб1700:00+10в5989100 1.6 1021555
03:00+8всв699292 1.8 1021385
06:00+7всв6109389 0.1 1022425
09:00+9всв7118484 0.1 1022557
12:00+13всв8106530 0.0 1021940
15:00+16всв81155100 0.0 10201435
18:00+14всв8135989 0.0 10201186
21:00+10всв7146769 0.0 1021664
18 апреля, вс
вс1800:00+9св6136772 0.0 1021586
03:00+6св6136659 0.0 1022473
06:00+6св61367100 0.0 1022525
09:00+8всв7126499 0.0 1022803
12:00+10в7105669 0.0 10231033
15:00+13всв7104794 0.0 10221972
18:00+11вюв476095 0.0 1023528
21:00+7в237967 0.1 102469
19 апреля, пн
пн1900:00+6св348386 0.0 102564
03:00+5всв41078100 0.0 1025271
06:00+4св410836 0.0 1026281
09:00+8всв68725 0.0 1026672
12:00+11всв685799 0.1 10261715
15:00+10всв4760100 0.1 10251211
18:00+9всв4864100 0.0 1026457
21:00+7всв4963100 0.0 1026458